Regional Weather Roundup
Issued by NWS

Home | Current Version | Previous Version | Text Only | Print | Product List | Glossary On
Versions: 1 2 3 4 5 6 7 8 9 10 11 12 13 14 15 16 17 18 19 20 21 22 23 24 25 26 27 28 29 30 31 32 33 34 35 36 37 38 39 40 41 42 43 44 45 46 47 48 49 50
064
ASUS44 KLIX 221005
RWRLA
LOUISIANA WEATHER ROUNDUP
NATIONAL WEATHER SERVICE NEW ORLEANS LA
500 AM CDT FRI AUG 22 2014

NOTE: "FAIR" INDICATES FEW OR NO CLOUDS BELOW 12,000 FEET WITH NO
      SIGNIFICANT WEATHER AND/OR OBSTRUCTIONS TO VISIBILITY.
      SKY/WX - SKY CONDITION AND SIGNIFICANT WEATHER.
      TMP - AIR TEMPERATURE.    DP   - DEWPOINT TEMPERATURE.
      RH  - RELATIVE HUMIDITY.  PRES - PRESSURE.
      HX  - HEAT INDEX.         WCI  - WIND CHILL INDEX.

*  THESE STATIONS ARE NOT NWS OR FAA STATIONS AND ARE NOT UNDER
   NWS QUALITY CONTROL.

LAZ040-048-061>063-065-066-069-221100-
SOUTHEAST LOUISIANA

CITY           SKY/WX    TMP DP  RH WIND       PRES   REMARKS
N.O. AUDUBON   NOT AVBL
N.O. INTL ARPT PTCLDY    76  72  87 N3        30.09R
N.O. LAKEFRONT PTCLDY    82  74  76 NW6       30.09R
N.O. DOWNTOWN* FAIR      79  70  73 CALM      30.09S
SLIDELL        PTCLDY    74  71  91 N3        30.08S
BATON ROUGE    PTCLDY    75  73  93 CALM      30.09R
BOOTHVILLE     CLEAR     82  78  88 NW3       30.08R
BELLE CHASSE   PTCLDY    74  70  87 CALM      30.08R
BOGALUSA*        N/A     74  71  88 CALM      30.10S
GALLIANO*      NOT AVBL
NEW ROADS*     FAIR      72  72  98 CALM      30.09S
GONZALES*      FAIR      73  73 100 CALM      30.08S
HAMMOND*       CLEAR     73  70  88 CALM      30.10S
HOUMA*         CLEAR     73  70  90 CALM      30.08R
PORT FOURCHON* SUNNY     84  75  74 CALM      30.09R

$$

LAZ041-044-053-054-221100-
SOUTHWEST LOUISIANA

CITY           SKY/WX    TMP DP  RH WIND       PRES   REMARKS
LAKE CHARLES   CLEAR     77  75  93 CALM      30.07S
LAFAYETTE      PTCLDY    75  73  93 CALM      30.08S
PATTERSON      CLEAR     73  73 100 CALM      30.11R
SALT POINT       N/A     81  78  91 CALM      30.07R
NEW IBERIA     PTCLDY    75  73  93 CALM      30.09R
CHENAULT AIRPK NOT AVBL

$$

LAZ027-028-221100-
CENTRAL LOUISIANA

CITY           SKY/WX    TMP DP  RH WIND       PRES   REMARKS
FORT POLK      PTCLDY    73  72  94 CALM      30.08S FOG
ALEXANDRIA INT CLOUDY    74  72  93 CALM      30.06R
ALEXANDRIA     CLOUDY    75  72  90 CALM      30.08R

$$

LAZ001-002-221100-
NORTHWEST LOUISIANA

CITY           SKY/WX    TMP DP  RH WIND       PRES   REMARKS
SHREVEPORT     PTCLDY    76  74  93 S5        30.06R
BARKSDALE AFB  CLEAR     73  73 100 S6        30.07R
DTN SHREVEPORT CLEAR     78  32  18 S10       30.06R

$$

LAZ014-016-221100-
NORTHEAST LOUISIANA

CITY           SKY/WX    TMP DP  RH WIND       PRES   REMARKS
MONROE         PTCLDY    71  70  96 CALM      30.09R
TALLULAH       PTCLDY    73  71  93 CALM      30.09R

$$




USA.gov is the U.S. government's official web portal to all federal, state and local government web resources and services.